This is the latest recevied weather packets stored in our database for station/object K2ATL. If no packets are shown the sender has not sent any weather packets the latest 10 day(s).
| Time | Temp. | Humidity | Pressure | Rain* | Wind** | Luminosity | Snow |
|---|---|---|---|---|---|---|---|
| 1787407604 | 20.56° C | 92% | 1103.3 hPa | 0 mm | - | 248 W/m² | - |
| 1787407300 | 21.11° C | 92% | 1103.2 hPa | 0 mm | - | 190 W/m² | - |
| 1787406996 | 21.67° C | 93% | 1103.3 hPa | 0 mm | - | 63 W/m² | - |
| 1787406691 | 21.67° C | 93% | 1103.2 hPa | 0 mm | - | 51 W/m² | - |
| 1787406386 | 21.67° C | 92% | 1103 hPa | 0 mm | - | 42 W/m² | - |
| 1787406083 | 21.67° C | 92% | 1103 hPa | 0 mm | - | 43 W/m² | - |
| 1787405779 | 21.67° C | 92% | 1103.1 hPa | 0 mm | - | 54 W/m² | - |
| 1787405476 | 21.67° C | 93% | 1103.1 hPa | 0 mm | - | 73 W/m² | - |
| 1787405175 | 21.67° C | 92% | 1103.3 hPa | 0 mm | - | 48 W/m² | - |
| 1787404872 | 21.67° C | 91% | 1103.3 hPa | 0 mm | - | 39 W/m² | - |
| 1787404267 | 21.67° C | 91% | 1103.1 hPa | 0 mm | - | 39 W/m² | - |
| 1787403962 | 21.67° C | 92% | 1103.1 hPa | 0 mm | - | 37 W/m² | - |
| 1787403657 | 21.67° C | 92% | 1102.8 hPa | 0 mm | - | 43 W/m² | - |
| 1787403351 | 21.67° C | 92% | 1103 hPa | 0 mm | - | 48 W/m² | - |
| 1787403048 | 21.67° C | 93% | 1102.8 hPa | 0 mm | - | 36 W/m² | - |
| 1787402744 | 21.67° C | 93% | 1103 hPa | 0 mm | - | 35 W/m² | - |
| 1787402443 | 21.11° C | 93% | 1103 hPa | 0 mm | - | 34 W/m² | - |
| 1787402138 | 21.11° C | 93% | 1103.1 hPa | 0 mm | - | 34 W/m² | - |
| 1787401833 | 21.11° C | 93% | 1103.3 hPa | 0 mm | - | 32 W/m² | - |
| 1787401530 | 21.11° C | 93% | 1103.1 hPa | 0 mm | - | 30 W/m² | - |
| 1787401225 | 21.11° C | 93% | 1102.7 hPa | 0 mm | - | 29 W/m² | - |
| 1787400921 | 21.11° C | 93% | 1102.8 hPa | 0 mm | - | 27 W/m² | - |
| 1787400620 | 21.11° C | 94% | 1102.7 hPa | 0 mm | - | 25 W/m² | - |
| 1787400316 | 21.11° C | 94% | 1102.8 hPa | 0 mm | - | 24 W/m² | - |
| 1787400015 | 21.11° C | 95% | 1102.7 hPa | 0 mm | - | 20 W/m² | - |
* Rain latest hour (hover to see other rain measurements)
** Current wind speed in m/s (hover to see current wind gust speed)